Flag for Sweden Weather past 2 weeks in Örebro, Sweden

Now
64 °F

Passing clouds.


Feels Like: 64 °F
Forecast: 42 / 66 °F
Wind: 3 mph from Northeast

Location: Orebro Private

Current Time: Sep 19, 2014 at 4:38:05 PM

Latest Report: Sep 19, 2014 at 4:20 PM


Visibility: N/A

Pressure: 30.07 "Hg

Humidity: 64%

Dew point: 52 °F

Location of ÖrebroLocation

Historic Weather in Örebro — Graph

°F

Örebro temperature yesterday

Maximum temperature yesterday: 64 °F (at 4:20 PM)
Minimum temperature yesterday: 43 °F (at 1:20 AM)
Average temperature yesterday: 51 °F

Past Weeks' High & Low Weather Summary

 TemperatureHumidityPressure
High73 °F (Sep 4, 3:20 PM)100% (Sep 5, 1:20 AM)30.48 "Hg (Sep 5, 1:20 AM)
Low37 °F (Sep 15, 6:20 AM)50% (Sep 4, 3:20 PM)29.77 "Hg (Sep 9, 4:50 AM)
Average55 °F87%30.19 "Hg
* Reported Sep 4 3:20 PM — Sep 19 3:20 PM, Örebro, Weather by CustomWeather, © 2014

Note: Actual official high and low records may vary slightly from our data, if they occured in-between our weather recording intervals... More about our weather records

Advertising

Örebro weather history for previous 24 hours

 ConditionsComfort  
Time TempWeatherWind HumidityBarometerVisibility
3:20 PM
Sep 19
64 °FPassing clouds.5 mph68%30.09 "HgN/A
2:50 PM63 °FPassing clouds.5 mph77%30.09 "HgN/A
2:20 PM61 °FPassing clouds.3 mph83%30.09 "HgN/A
1:50 PM57 °FPassing clouds.3 mph100%30.09 "HgN/A
1:20 PM55 °FPartly sunny.3 mph100%30.12 "HgN/A
12:20 PM54 °FLow clouds.3 mph100%30.12 "Hg2 mi
11:50 AM52 °FFog.2 mph100%30.12 "Hg1 mi
11:20 AM52 °FFog.3 mph100%30.12 "Hg0 mi
10:50 AM52 °FFog.2 mph100%30.12 "Hg0 mi
10:20 AM50 °FFog.2 mph100%30.15 "Hg0 mi
9:50 AM50 °FFog.1 mph100%30.12 "Hg0 mi
9:20 AM50 °FFog.3 mph100%30.12 "Hg0 mi
8:50 AM48 °FFog.3 mph100%30.12 "Hg0 mi
8:20 AM48 °FFog.6 mph100%30.12 "Hg0 mi
7:50 AM48 °FFog.3 mph100%30.12 "Hg0 mi
7:20 AM48 °FFog.3 mph100%30.12 "Hg0 mi
6:50 AM46 °FFog.3 mph100%30.12 "Hg0 mi
6:20 AM48 °FFog.5 mph100%30.12 "Hg0 mi
5:50 AM46 °FFog.3 mph100%30.12 "Hg0 mi
5:20 AM48 °FFog.5 mph94%30.12 "Hg0 mi
4:50 AM46 °FFog.6 mph100%30.12 "Hg0 mi
4:20 AM48 °FFog.5 mph100%30.12 "Hg0 mi
3:50 AM48 °FFog.5 mph94%30.15 "Hg0 mi
3:20 AM48 °FFog.5 mph94%30.15 "Hg0 mi
2:50 AM48 °FFog.6 mph94%30.15 "Hg0 mi
2:20 AM46 °FFog.5 mph100%30.15 "Hg2 mi
1:50 AM46 °FFog.6 mph93%30.15 "Hg4 mi
1:20 AM46 °FPassing clouds.6 mph100%30.15 "Hg2 mi
12:50 AM46 °FLight fog.6 mph100%30.15 "Hg3 mi
12:20 AM46 °FFog.6 mph100%30.18 "HgN/A
11:50 PM
Sep 18
46 °FFog.6 mph100%30.18 "HgN/A
11:20 PM46 °FFog.3 mph100%30.18 "HgN/A
10:50 PM48 °FFog.5 mph94%30.18 "HgN/A
10:20 PM48 °FLight fog.5 mph94%30.18 "HgN/A
9:50 PM48 °FFog.5 mph100%30.18 "HgN/A
9:20 PM50 °FClear.5 mph94%30.18 "Hg10 mi
8:50 PM50 °FClear.6 mph94%30.18 "Hg10 mi
8:20 PM50 °FFog.5 mph94%30.18 "HgN/A
7:50 PM54 °FFog.5 mph88%30.18 "HgN/A
7:20 PM57 °FSunny.6 mph82%30.18 "Hg10 mi
6:50 PM59 °FSunny.6 mph77%30.18 "Hg10 mi
6:20 PM61 °FSunny.6 mph77%30.18 "Hg10 mi
5:50 PM63 °FSunny.7 mph73%30.18 "Hg10 mi
5:20 PM63 °FSunny.5 mph73%30.18 "Hg10 mi
4:50 PM63 °FPassing clouds.6 mph73%30.18 "HgN/A
4:20 PM64 °FSunny.3 mph68%30.18 "Hg10 mi
Weather by CustomWeather, © 2014

See weather overviewHow to use our weather pages